Flag for Czech Republic Weather past 2 weeks in Brno, Czech Republic

Now
69 °F

Overcast.


Feels Like: 69 °F
Forecast: 55 / 70 °F
Wind: 2 mph from North

Location: Brno / Turany

Current Time: Sep 3, 2015 at 9:15:36 PM

Latest Report: Sep 3, 2015 at 8:00 PM


Visibility: 25 mi

Pressure: 29.87 "Hg

Humidity: 56%

Dew point: 53 °F

Location of BrnoLocation

Historic Weather in Brno — Graph

°F

Brno temperature yesterday

Maximum temperature yesterday: 75 °F (at 1:00 AM)
Minimum temperature yesterday: 61 °F (at 8:00 AM)
Average temperature yesterday: 68 °F

Past Weeks' High & Low Weather Summary

 TemperatureHumidityPressure
High92 °F (Aug 30, 5:00 PM)94% (Aug 19, 8:00 PM)30.24 "Hg (Aug 19, 8:00 PM)
Low52 °F (Aug 26, 5:00 AM)30% (Aug 31, 4:00 PM)29.71 "Hg (Sep 1, 6:00 PM)
Average70 °F62%30.03 "Hg
* Reported Aug 19 8:00 PM — Sep 3 8:00 PM, Brno, Weather by CustomWeather, © 2015

Note: Actual official high and low records may vary slightly from our data, if they occured in-between our weather recording intervals... More about our weather records

Advertising

Brno weather history for previous 24 hours

 ConditionsComfort  
Time TempWeatherWind HumidityBarometerVisibility
8:00 PM
Thu, Sep 3
69 °FOvercast.2 mph56%29.87 "Hg25 mi
7:00 PM70 °FOvercast.1 mph50%29.86 "Hg25 mi
6:00 PM70 °FOvercast.1 mph54%29.87 "Hg19 mi
5:00 PM71 °FPartly sunny.2 mph47%29.88 "Hg19 mi
4:00 PM72 °FPartly sunny.3 mph46%29.89 "Hg19 mi
3:00 PM71 °FPartly sunny.5 mph49%29.91 "Hg19 mi
2:00 PM71 °FPartly sunny.5 mph47%29.92 "Hg19 mi
1:00 PM71 °FPartly sunny.5 mph47%29.94 "Hg16 mi
12:00 PM69 °FPartly sunny.5 mph53%29.95 "Hg16 mi
11:00 AM66 °FPartly sunny.7 mph58%29.96 "Hg16 mi
10:00 AM64 °FPartly sunny.5 mph65%29.99 "Hg16 mi
9:00 AM62 °FOvercast.2 mph70%29.99 "Hg16 mi
8:00 AM58 °FFog.2 mph82%29.99 "Hg16 mi
7:00 AM55 °FFog.2 mph90%30.00 "Hg16 mi
6:00 AM53 °FFog.2 mph92%30.01 "Hg16 mi
5:00 AM55 °FPassing clouds.2 mph93%30.01 "Hg19 mi
4:00 AM56 °FPassing clouds.2 mph92%30.01 "Hg19 mi
3:00 AM57 °FPassing clouds.5 mph88%30.01 "Hg19 mi
2:00 AM59 °FPassing clouds.5 mph86%30.01 "Hg19 mi
1:00 AM59 °FOvercast.5 mph88%30.01 "Hg19 mi
12:00 AM60 °FLight rain. Overcast.6 mph86%30.01 "Hg12 mi
10:00 PM
Wed, Sep 2
62 °FLight rain. Overcast.5 mph79%30.00 "Hg19 mi
9:00 PM64 °FLight rain. Overcast.2 mph72%30.01 "Hg12 mi
Weather by CustomWeather, © 2015

See weather overviewHow to use our weather pages